Regional Weather Roundup
Issued by NWS

Home | Current Version | Previous Version | Text Only | Print | Product List | Glossary On
Versions: 1 2 3 4 5 6 7 8 9 10 11 12 13 14 15 16 17 18 19 20 21 22 23 24 25 26 27 28 29 30 31 32 33 34 35 36 37 38 39 40 41 42 43 44 45 46 47 48 49 50
000
ASUS43 KBIS 282320
RWRND

NORTH DAKOTA REGIONAL WEATHER ROUNDUP
NATIONAL WEATHER SERVICE BISMARCK ND
600 PM CDT MON JUL 28 2014

NOTE: "FAIR" INDICATES FEW OR NO CLOUDS BELOW 12,000 FEET WITH NO
SIGNIFICANT WEATHER AND/OR OBSTRUCTIONS TO VISIBILITY.


NDZ001>003-009>011-017-290000-
NORTHWEST NORTH DAKOTA

CITY           SKY/WX    TMP DP  RH WIND       PRES   REMARKS
WILLISTON      PTSUNNY   80  50  34 E8        30.23F
MINOT          MOSUNNY   74  54  49 N6        30.25F
MINOT AFB      MOSUNNY   74  55  51 NE7       30.24F
$$

NDZ018>021-031>035-040>046-290000-
SOUTHWEST NORTH DAKOTA

CITY           SKY/WX    TMP DP  RH WIND       PRES   REMARKS
BISMARCK       MOSUNNY   76  49  38 NW9       30.26F
DICKINSON      MOSUNNY   78  53  41 NE9       30.25F
GARRISON         N/A     74  58  57 S7        30.26F
HETTINGER ARPT SUNNY     78  51  38 NE7       30.28F
$$

NDZ004>008-012>016-024-026-027-054-290000-
NORTHEAST NORTH DAKOTA

CITY           SKY/WX    TMP DP  RH WIND       PRES   REMARKS
GRAND FORKS    MOSUNNY   75  54  47 N8        30.20F
GRND FRKS AFB  SUNNY     73  55  52 N6        30.22F
DEVILS LAKE    MOSUNNY   72  52  49 W8        30.22F
$$

NDZ022-023-025-028>030-036>039-047>053-290000-
SOUTHEAST NORTH DAKOTA

CITY           SKY/WX    TMP DP  RH WIND       PRES   REMARKS
FARGO          MOSUNNY   74  52  46 NW7       30.21F
JAMESTOWN      CLOUDY    70  51  51 N5        30.25F
$$



USA.gov is the U.S. government's official web portal to all federal, state and local government web resources and services.